Time,TemperatureF,DewpointF,PressureIn,WindDirection,WindDirectionDegrees,WindSpeedMPH,WindSpeedGustMPH,Humidity,HourlyPrecipIn,Conditions,Clouds,dailyrainin,SoftwareType,DateUTC
2013-03-18 00:00:00,39.8,38.2,30.13,East,88,2.0,2.0,94,0.00,,,0.00,Wunderground v.1.15,2013-03-18 04:00:00,
2013-03-18 00:05:00,39.7,38.1,30.14,ENE,72,1.0,2.0,94,0.00,,,0.00,Wunderground v.1.15,2013-03-18 04:05:00,
2013-03-18 00:10:00,39.6,38.0,30.14,NE,46,2.0,2.0,94,0.00,,,0.00,Wunderground v.1.15,2013-03-18 04:10:00,
2013-03-18 00:15:00,39.5,37.9,30.13,ENE,73,2.0,2.0,94,0.00,,,0.00,Wunderground v.1.15,2013-03-18 04:15:00,
2013-03-18 00:20:00,39.4,37.8,30.13,ENE,68,2.0,2.0,94,0.00,,,0.00,Wunderground v.1.15,2013-03-18 04:20:00,
2013-03-18 00:30:00,39.3,37.7,30.13,ENE,66,1.0,2.0,94,0.00,,,0.00,Wunderground v.1.15,2013-03-18 04:30:00,
2013-03-18 00:35:00,39.2,37.6,30.13,ENE,71,2.0,5.0,94,0.00,,,0.00,Wunderground v.1.15,2013-03-18 04:35:00,
2013-03-18 00:40:00,39.2,37.9,30.13,East,98,2.0,2.0,95,0.00,,,0.00,Wunderground v.1.15,2013-03-18 04:40:00,
2013-03-18 00:45:00,39.2,37.9,30.13,NNE,32,1.0,5.0,95,0.00,,,0.00,Wunderground v.1.15,2013-03-18 04:45:00,
2013-03-18 00:55:00,39.2,37.9,30.14,ENE,59,1.0,5.0,95,0.00,,,0.00,Wunderground v.1.15,2013-03-18 04:55:00,
2013-03-18 01:00:00,39.2,37.9,30.14,East,86,1.0,1.0,95,0.00,,,0.00,Wunderground v.1.15,2013-03-18 05:00:00,
2013-03-18 01:05:00,39.2,37.9,30.14,ENE,57,1.0,2.0,95,0.00,,,0.00,Wunderground v.1.15,2013-03-18 05:05:00,
2013-03-18 01:15:00,39.2,37.9,30.14,ENE,73,1.0,5.0,95,0.00,,,0.00,Wunderground v.1.15,2013-03-18 05:15:00,
2013-03-18 01:20:00,39.1,37.8,30.14,East,92,1.0,5.0,95,0.00,,,0.00,Wunderground v.1.15,2013-03-18 05:20:00,
2013-03-18 01:25:00,39.1,37.8,30.14,ENE,60,1.0,5.0,95,0.00,,,0.00,Wunderground v.1.15,2013-03-18 05:25:00,
2013-03-18 01:35:00,39.1,37.8,30.14,NE,40,1.0,5.0,95,0.00,,,0.00,Wunderground v.1.15,2013-03-18 05:35:00,
2013-03-18 01:40:00,39.0,37.7,30.13,ENE,73,1.0,5.0,95,0.00,,,0.00,Wunderground v.1.15,2013-03-18 05:40:00,
2013-03-18 01:50:00,38.9,37.6,30.13,ENE,75,1.0,1.0,95,0.00,,,0.00,Wunderground v.1.15,2013-03-18 05:50:00,
2013-03-18 01:55:00,38.9,37.6,30.13,ENE,74,1.0,5.0,95,0.00,,,0.00,Wunderground v.1.15,2013-03-18 05:55:00,
2013-03-18 02:00:00,38.9,37.6,30.13,ENE,63,1.0,5.0,95,0.00,,,0.00,Wunderground v.1.15,2013-03-18 06:00:00,
2013-03-18 02:05:00,38.8,37.5,30.13,ESE,107,1.0,5.0,95,0.00,,,0.00,Wunderground v.1.15,2013-03-18 06:05:00,
2013-03-18 02:15:00,38.9,37.9,30.13,East,101,1.0,5.0,96,0.00,,,0.00,Wunderground v.1.15,2013-03-18 06:15:00,
2013-03-18 02:20:00,38.9,37.9,30.13,East,82,1.0,1.0,96,0.00,,,0.00,Wunderground v.1.15,2013-03-18 06:20:00,
2013-03-18 02:25:00,38.9,37.9,30.13,ENE,64,1.0,5.0,96,0.00,,,0.00,Wunderground v.1.15,2013-03-18 06:25:00,
2013-03-18 02:35:00,38.9,37.9,30.12,East,96,1.0,5.0,96,0.00,,,0.00,Wunderground v.1.15,2013-03-18 06:35:00,
2013-03-18 02:40:00,38.9,37.9,30.12,ENE,74,2.0,2.0,96,0.00,,,0.00,Wunderground v.1.15,2013-03-18 06:40:00,
2013-03-18 02:45:00,38.9,37.9,30.12,ENE,59,1.0,5.0,96,0.00,,,0.00,Wunderground v.1.15,2013-03-18 06:45:00,
2013-03-18 02:50:00,38.9,37.9,30.12,ENE,64,1.0,1.0,96,0.00,,,0.00,Wunderground v.1.15,2013-03-18 06:50:00,
2013-03-18 03:00:00,38.9,37.9,30.12,ENE,78,0.0,5.0,96,0.00,,,0.00,Wunderground v.1.15,2013-03-18 07:00:00,
2013-03-18 03:05:00,38.8,37.8,30.12,ENE,71,1.0,5.0,96,0.00,,,0.00,Wunderground v.1.15,2013-03-18 07:05:00,
2013-03-18 03:15:00,38.8,37.8,30.12,East,86,1.0,5.0,96,0.00,,,0.00,Wunderground v.1.15,2013-03-18 07:15:00,
2013-03-18 03:20:00,38.8,37.8,30.12,East,99,1.0,1.0,96,0.00,,,0.00,Wunderground v.1.15,2013-03-18 07:20:00,
2013-03-18 03:25:00,38.8,37.8,30.12,East,92,0.0,5.0,96,0.00,,,0.00,Wunderground v.1.15,2013-03-18 07:25:00,
2013-03-18 03:30:00,38.8,37.8,30.12,East,80,1.0,1.0,96,0.00,,,0.00,Wunderground v.1.15,2013-03-18 07:30:00,
2013-03-18 03:40:00,38.7,37.7,30.12,ENE,57,1.0,1.0,96,0.00,,,0.00,Wunderground v.1.15,2013-03-18 07:40:00,
2013-03-18 03:45:00,38.7,37.7,30.12,ESE,106,1.0,5.0,96,0.00,,,0.00,Wunderground v.1.15,2013-03-18 07:45:00,
2013-03-18 03:50:00,38.8,37.8,30.12,NE,39,1.0,5.0,96,0.00,,,0.00,Wunderground v.1.15,2013-03-18 07:50:00,
2013-03-18 03:55:00,38.8,37.8,30.13,East,80,1.0,5.0,96,0.00,,,0.00,Wunderground v.1.15,2013-03-18 07:55:00,
2013-03-18 04:05:00,38.8,37.8,30.12,ENE,66,1.0,5.0,96,0.00,,,0.00,Wunderground v.1.15,2013-03-18 08:05:00,
2013-03-18 04:10:00,38.8,37.8,30.12,ENE,65,1.0,1.0,96,0.00,,,0.00,Wunderground v.1.15,2013-03-18 08:10:00,
2013-03-18 04:15:00,38.8,37.8,30.13,East,80,1.0,5.0,96,0.00,,,0.00,Wunderground v.1.15,2013-03-18 08:15:00,
2013-03-18 04:25:00,38.7,37.7,30.12,East,94,0.0,5.0,96,0.00,,,0.00,Wunderground v.1.15,2013-03-18 08:25:00,
2013-03-18 04:30:00,38.7,37.7,30.13,NNE,18,1.0,5.0,96,0.00,,,0.00,Wunderground v.1.15,2013-03-18 08:30:00,
2013-03-18 04:35:00,38.6,37.6,30.13,ENE,64,1.0,5.0,96,0.00,,,0.00,Wunderground v.1.15,2013-03-18 08:35:00,
2013-03-18 04:45:00,38.6,37.6,30.13,ENE,71,0.0,5.0,96,0.00,,,0.00,Wunderground v.1.15,2013-03-18 08:45:00,
2013-03-18 04:50:00,38.6,37.6,30.13,ENE,57,1.0,5.0,96,0.00,,,0.00,Wunderground v.1.15,2013-03-18 08:50:00,
2013-03-18 04:55:00,38.5,37.5,30.13,ENE,69,1.0,5.0,96,0.00,,,0.00,Wunderground v.1.15,2013-03-18 08:55:00,
2013-03-18 05:05:00,38.4,37.4,30.13,SE,134,0.0,5.0,96,0.00,,,0.00,Wunderground v.1.15,2013-03-18 09:05:00,
2013-03-18 05:10:00,38.4,37.4,30.14,SE,134,0.0,5.0,96,0.00,,,0.00,Wunderground v.1.15,2013-03-18 09:10:00,
2013-03-18 05:15:00,38.4,37.4,30.14,ENE,73,1.0,5.0,96,0.00,,,0.00,Wunderground v.1.15,2013-03-18 09:15:00,
2013-03-18 05:20:00,38.3,37.3,30.14,ENE,69,1.0,1.0,96,0.00,,,0.00,Wunderground v.1.15,2013-03-18 09:20:00,
2013-03-18 05:30:00,38.4,37.4,30.14,ENE,65,1.0,5.0,96,0.00,,,0.01,Wunderground v.1.15,2013-03-18 09:30:00,
2013-03-18 05:35:00,38.3,37.3,30.13,ENE,63,0.0,5.0,96,0.00,,,0.01,Wunderground v.1.15,2013-03-18 09:35:00,
2013-03-18 05:40:00,38.3,37.3,30.14,ENE,57,1.0,1.0,96,0.00,,,0.01,Wunderground v.1.15,2013-03-18 09:40:00,
2013-03-18 05:45:00,38.2,37.2,30.14,NE,38,1.0,5.0,96,0.00,,,0.01,Wunderground v.1.15,2013-03-18 09:45:00,
2013-03-18 05:55:00,38.0,37.0,30.14,NE,49,0.0,5.0,96,0.00,,,0.01,Wunderground v.1.15,2013-03-18 09:55:00,
2013-03-18 06:00:00,38.0,37.0,30.14,East,81,1.0,5.0,96,0.00,,,0.01,Wunderground v.1.15,2013-03-18 10:00:00,
2013-03-18 06:10:00,37.8,36.8,30.14,ESE,105,1.0,1.0,96,0.00,,,0.01,Wunderground v.1.15,2013-03-18 10:10:00,
2013-03-18 06:20:00,37.6,36.6,30.14,NE,55,1.0,5.0,96,0.00,,,0.01,Wunderground v.1.15,2013-03-18 10:20:00,
2013-03-18 06:25:00,37.6,36.6,30.14,ENE,62,1.0,5.0,96,0.00,,,0.01,Wunderground v.1.15,2013-03-18 10:25:00,
2013-03-18 06:30:00,37.5,36.5,30.15,East,89,1.0,1.0,96,0.00,,,0.01,Wunderground v.1.15,2013-03-18 10:30:00,
2013-03-18 06:40:00,37.5,36.5,30.15,ENE,62,1.0,1.0,96,0.00,,,0.01,Wunderground v.1.15,2013-03-18 10:40:00,
2013-03-18 06:45:00,37.5,36.5,30.15,ENE,75,1.0,5.0,96,0.00,,,0.01,Wunderground v.1.15,2013-03-18 10:45:00,
2013-03-18 06:50:00,37.5,36.5,30.16,ENE,73,1.0,5.0,96,0.00,,,0.01,Wunderground v.1.15,2013-03-18 10:50:00,
2013-03-18 06:55:00,37.5,36.5,30.16,NE,35,1.0,5.0,96,0.00,,,0.01,Wunderground v.1.15,2013-03-18 10:55:00,
2013-03-18 07:05:00,37.7,36.7,30.16,East,86,0.0,5.0,96,0.00,,,0.01,Wunderground v.1.15,2013-03-18 11:05:00,
2013-03-18 07:10:00,37.7,36.7,30.16,ENE,76,1.0,1.0,96,0.00,,,0.01,Wunderground v.1.15,2013-03-18 11:10:00,
2013-03-18 07:15:00,37.7,36.7,30.16,East,91,1.0,5.0,96,0.00,,,0.01,Wunderground v.1.15,2013-03-18 11:15:00,
2013-03-18 07:25:00,37.6,36.6,30.15,ENE,78,1.0,5.0,96,0.00,,,0.01,Wunderground v.1.15,2013-03-18 11:25:00,
2013-03-18 07:30:00,37.5,36.5,30.15,NE,36,1.0,5.0,96,0.00,,,0.01,Wunderground v.1.15,2013-03-18 11:30:00,
2013-03-18 07:35:00,37.5,36.5,30.16,East,94,1.0,5.0,96,0.00,,,0.01,Wunderground v.1.15,2013-03-18 11:35:00,
2013-03-18 07:40:00,37.5,36.5,30.17,NE,42,1.0,1.0,96,0.00,,,0.01,Wunderground v.1.15,2013-03-18 11:40:00,
2013-03-18 07:50:00,37.5,36.5,30.17,NE,52,1.0,5.0,96,0.00,,,0.01,Wunderground v.1.15,2013-03-18 11:50:00,
2013-03-18 07:55:00,37.5,36.5,30.17,NE,53,0.0,5.0,96,0.00,,,0.01,Wunderground v.1.15,2013-03-18 11:55:00,
2013-03-18 08:00:00,37.5,36.5,30.17,ENE,67,1.0,5.0,96,0.00,,,0.01,Wunderground v.1.15,2013-03-18 12:00:00,
2013-03-18 08:10:00,37.6,36.6,30.16,ENE,69,1.0,1.0,96,0.00,,,0.01,Wunderground v.1.15,2013-03-18 12:10:00,
2013-03-18 08:15:00,37.6,36.6,30.15,NE,55,1.0,3.0,96,0.00,,,0.01,Wunderground v.1.15,2013-03-18 12:15:00,
2013-03-18 08:20:00,37.6,36.6,30.15,East,80,1.0,5.0,96,0.00,,,0.01,Wunderground v.1.15,2013-03-18 12:20:00,
2013-03-18 08:30:00,37.6,36.6,30.16,ENE,71,1.0,1.0,96,0.00,,,0.01,Wunderground v.1.15,2013-03-18 12:30:00,
2013-03-18 08:35:00,37.6,36.6,30.15,East,79,1.0,2.0,96,0.00,,,0.01,Wunderground v.1.15,2013-03-18 12:35:00,
2013-03-18 08:40:00,37.7,36.7,30.15,ENE,57,1.0,5.0,96,0.00,,,0.01,Wunderground v.1.15,2013-03-18 12:40:00,
2013-03-18 08:45:00,37.6,36.6,30.16,ENE,62,1.0,5.0,96,0.00,,,0.01,Wunderground v.1.15,2013-03-18 12:45:00,
2013-03-18 08:55:00,37.7,36.7,30.15,ESE,106,1.0,5.0,96,0.00,,,0.01,Wunderground v.1.15,2013-03-18 12:55:00,
2013-03-18 09:00:00,37.8,36.8,30.15,East,101,2.0,5.0,96,0.00,,,0.01,Wunderground v.1.15,2013-03-18 13:00:00,
2013-03-18 09:05:00,37.8,36.8,30.15,ENE,67,2.0,5.0,96,0.00,,,0.01,Wunderground v.1.15,2013-03-18 13:05:00,
2013-03-18 09:15:00,37.8,36.8,30.15,ENE,63,1.0,5.0,96,0.00,,,0.01,Wunderground v.1.15,2013-03-18 13:15:00,
2013-03-18 09:20:00,37.8,36.8,30.15,East,83,1.0,5.0,96,0.00,,,0.01,Wunderground v.1.15,2013-03-18 13:20:00,
2013-03-18 09:25:00,37.8,36.8,30.16,East,90,2.0,5.0,96,0.00,,,0.01,Wunderground v.1.15,2013-03-18 13:25:00,
2013-03-18 09:35:00,37.9,36.9,30.16,ESE,112,1.0,5.0,96,0.00,,,0.01,Wunderground v.1.15,2013-03-18 13:35:00,
2013-03-18 09:40:00,37.9,36.9,30.14,East,86,1.0,5.0,96,0.00,,,0.01,Wunderground v.1.15,2013-03-18 13:40:00,
2013-03-18 09:45:00,38.0,37.0,30.14,ESE,104,2.0,5.0,96,0.00,,,0.01,Wunderground v.1.15,2013-03-18 13:45:00,
2013-03-18 09:55:00,38.0,37.0,30.14,ESE,109,2.0,5.0,96,0.00,,,0.01,Wunderground v.1.15,2013-03-18 13:55:00,
2013-03-18 10:00:00,38.0,37.0,30.16,SE,146,1.0,1.0,96,0.00,,,0.01,Wunderground v.1.15,2013-03-18 14:00:00,
2013-03-18 10:05:00,38.1,37.1,30.16,North,5,0.0,5.0,96,0.00,,,0.01,Wunderground v.1.15,2013-03-18 14:05:00,
2013-03-18 10:10:00,38.2,37.2,30.15,NE,51,0.0,5.0,96,0.00,,,0.01,Wunderground v.1.15,2013-03-18 14:10:00,
2013-03-18 10:20:00,38.2,37.2,30.14,ESE,103,1.0,1.0,96,0.00,,,0.01,Wunderground v.1.15,2013-03-18 14:20:00,
2013-03-18 10:25:00,38.1,37.1,30.14,ESE,107,1.0,2.0,96,0.00,,,0.01,Wunderground v.1.15,2013-03-18 14:25:00,
2013-03-18 10:30:00,38.0,37.0,30.14,ESE,115,1.0,1.0,96,0.00,,,0.01,Wunderground v.1.15,2013-03-18 14:30:00,
2013-03-18 10:35:00,38.0,37.0,30.14,East,94,1.0,5.0,96,0.00,,,0.01,Wunderground v.1.15,2013-03-18 14:35:00,
2013-03-18 10:45:00,38.0,37.0,30.14,ENE,76,1.0,5.0,96,0.00,,,0.01,Wunderground v.1.15,2013-03-18 14:45:00,
2013-03-18 10:50:00,37.9,36.9,30.14,East,82,1.0,5.0,96,0.00,,,0.01,Wunderground v.1.15,2013-03-18 14:50:00,
2013-03-18 11:00:00,38.0,37.0,30.14,ESE,116,1.0,5.0,96,0.00,,,0.01,Wunderground v.1.15,2013-03-18 15:00:00,
2013-03-18 11:05:00,38.1,37.1,30.14,ESE,116,0.0,5.0,96,0.00,,,0.01,Wunderground v.1.15,2013-03-18 15:05:00,
2013-03-18 11:10:00,38.2,37.2,30.14,ESE,116,0.0,5.0,96,0.00,,,0.01,Wunderground v.1.15,2013-03-18 15:10:00,
2013-03-18 11:15:00,38.3,37.3,30.13,South,172,0.0,5.0,96,0.00,,,0.01,Wunderground v.1.15,2013-03-18 15:15:00,
2013-03-18 11:25:00,38.5,37.5,30.13,NE,55,1.0,2.0,96,0.00,,,0.01,Wunderground v.1.15,2013-03-18 15:25:00,
2013-03-18 11:30:00,38.4,37.4,30.12,NE,53,1.0,5.0,96,0.00,,,0.01,Wunderground v.1.15,2013-03-18 15:30:00,
2013-03-18 11:35:00,38.4,37.4,30.11,East,99,2.0,5.0,96,0.00,,,0.01,Wunderground v.1.15,2013-03-18 15:35:00,
2013-03-18 11:45:00,38.7,37.7,30.11,ENE,59,1.0,5.0,96,0.00,,,0.01,Wunderground v.1.15,2013-03-18 15:45:00,
2013-03-18 11:50:00,38.7,37.7,30.12,East,88,1.0,1.0,96,0.00,,,0.01,Wunderground v.1.15,2013-03-18 15:50:00,
2013-03-18 11:55:00,38.7,37.4,30.12,NNE,13,1.0,5.0,95,0.00,,,0.01,Wunderground v.1.15,2013-03-18 15:55:00,
2013-03-18 12:00:00,38.7,37.4,30.13,ESE,109,1.0,5.0,95,0.00,,,0.01,Wunderground v.1.15,2013-03-18 16:00:00,
2013-03-18 12:10:00,38.8,37.8,30.13,NE,49,0.0,5.0,96,0.00,,,0.01,Wunderground v.1.15,2013-03-18 16:10:00,
2013-03-18 12:15:00,38.8,37.5,30.13,NE,49,0.0,5.0,95,0.00,,,0.01,Wunderground v.1.15,2013-03-18 16:15:00,
2013-03-18 12:20:00,38.9,37.6,30.12,ESE,116,0.0,5.0,95,0.00,,,0.01,Wunderground v.1.15,2013-03-18 16:20:00,
2013-03-18 12:30:00,38.8,37.5,30.12,East,82,1.0,1.0,95,0.00,,,0.01,Wunderground v.1.15,2013-03-18 16:30:00,
2013-03-18 12:35:00,38.8,37.5,30.12,ENE,69,0.0,5.0,95,0.00,,,0.01,Wunderground v.1.15,2013-03-18 16:35:00,
2013-03-18 12:40:00,38.8,37.5,30.12,ENE,67,1.0,1.0,95,0.00,,,0.01,Wunderground v.1.15,2013-03-18 16:40:00,
2013-03-18 12:50:00,38.9,37.6,30.12,SE,137,0.0,5.0,95,0.00,,,0.01,Wunderground v.1.15,2013-03-18 16:50:00,
2013-03-18 12:55:00,38.9,37.6,30.11,SE,137,0.0,5.0,95,0.00,,,0.01,Wunderground v.1.15,2013-03-18 16:55:00,
2013-03-18 13:00:00,39.0,37.7,30.11,SE,132,0.0,5.0,95,0.00,,,0.01,Wunderground v.1.15,2013-03-18 17:00:00,
2013-03-18 13:05:00,38.9,37.6,30.10,ESE,119,0.0,5.0,95,0.00,,,0.01,Wunderground v.1.15,2013-03-18 17:05:00,
2013-03-18 13:15:00,39.1,37.8,30.09,East,96,1.0,5.0,95,0.00,,,0.01,Wunderground v.1.15,2013-03-18 17:15:00,
2013-03-18 13:20:00,39.1,37.8,30.09,East,80,1.0,1.0,95,0.00,,,0.01,Wunderground v.1.15,2013-03-18 17:20:00,
2013-03-18 13:25:00,39.2,38.2,30.09,East,101,0.0,2.0,96,0.00,,,0.01,Wunderground v.1.15,2013-03-18 17:25:00,
2013-03-18 13:35:00,39.2,38.2,30.08,East,95,1.0,5.0,96,0.00,,,0.01,Wunderground v.1.15,2013-03-18 17:35:00,
2013-03-18 13:40:00,39.3,38.3,30.08,NE,55,0.0,5.0,96,0.00,,,0.01,Wunderground v.1.15,2013-03-18 17:40:00,
2013-03-18 13:45:00,39.3,38.3,30.08,North,349,1.0,5.0,96,0.00,,,0.01,Wunderground v.1.15,2013-03-18 17:45:00,
2013-03-18 13:55:00,39.3,38.0,30.07,East,86,1.0,5.0,95,0.00,,,0.01,Wunderground v.1.15,2013-03-18 17:55:00,
2013-03-18 14:00:00,39.4,38.1,30.07,ENE,59,1.0,5.0,95,0.00,,,0.01,Wunderground v.1.15,2013-03-18 18:00:00,
2013-03-18 14:05:00,39.3,38.0,30.06,East,101,1.0,5.0,95,0.00,,,0.01,Wunderground v.1.15,2013-03-18 18:05:00,
2013-03-18 14:15:00,39.5,38.5,30.05,East,96,0.0,5.0,96,0.00,,,0.01,Wunderground v.1.15,2013-03-18 18:15:00,
2013-03-18 14:20:00,39.5,38.5,30.05,ESE,109,0.0,5.0,96,0.00,,,0.01,Wunderground v.1.15,2013-03-18 18:20:00,
2013-03-18 14:25:00,39.6,38.6,30.04,ESE,109,0.0,5.0,96,0.00,,,0.01,Wunderground v.1.15,2013-03-18 18:25:00,
2013-03-18 14:30:00,39.5,38.5,30.03,SE,142,1.0,5.0,96,0.00,,,0.01,Wunderground v.1.15,2013-03-18 18:30:00,
2013-03-18 14:40:00,39.4,38.4,30.03,East,88,1.0,1.0,96,0.00,,,0.01,Wunderground v.1.15,2013-03-18 18:40:00,
2013-03-18 14:45:00,39.5,38.5,30.02,SW,216,0.0,2.0,96,0.00,,,0.01,Wunderground v.1.15,2013-03-18 18:45:00,
2013-03-18 14:50:00,39.6,38.6,30.03,East,82,0.0,5.0,96,0.00,,,0.01,Wunderground v.1.15,2013-03-18 18:50:00,
2013-03-18 14:55:00,39.6,38.6,30.03,East,85,0.0,5.0,96,0.00,,,0.01,Wunderground v.1.15,2013-03-18 18:55:00,
2013-03-18 15:05:00,39.6,38.6,30.03,ENE,72,0.0,5.0,96,0.00,,,0.01,Wunderground v.1.15,2013-03-18 19:05:00,
2013-03-18 15:10:00,39.7,38.7,30.03,ENE,72,0.0,5.0,96,0.00,,,0.01,Wunderground v.1.15,2013-03-18 19:10:00,
2013-03-18 15:15:00,39.8,38.8,30.02,East,86,0.0,5.0,96,0.00,,,0.01,Wunderground v.1.15,2013-03-18 19:15:00,
2013-03-18 15:25:00,39.7,38.7,30.00,East,79,0.0,5.0,96,0.00,,,0.01,Wunderground v.1.15,2013-03-18 19:25:00,
2013-03-18 15:30:00,39.7,38.7,30.00,East,95,0.0,5.0,96,0.00,,,0.01,Wunderground v.1.15,2013-03-18 19:30:00,
2013-03-18 15:35:00,39.8,38.8,30.00,East,95,0.0,5.0,96,0.00,,,0.01,Wunderground v.1.15,2013-03-18 19:35:00,
2013-03-18 15:45:00,39.8,38.8,30.00,East,95,0.0,5.0,96,0.00,,,0.01,Wunderground v.1.15,2013-03-18 19:45:00,
2013-03-18 15:50:00,40.0,39.0,30.00,ENE,69,0.0,5.0,96,0.00,,,0.01,Wunderground v.1.15,2013-03-18 19:50:00,
2013-03-18 15:55:00,40.0,39.0,30.00,ENE,69,0.0,5.0,96,0.00,,,0.01,Wunderground v.1.15,2013-03-18 19:55:00,
2013-03-18 16:05:00,39.9,38.9,29.99,ENE,67,0.0,5.0,96,0.00,,,0.01,Wunderground v.1.15,2013-03-18 20:05:00,
2013-03-18 16:10:00,39.9,38.9,29.99,ENE,67,0.0,5.0,96,0.00,,,0.01,Wunderground v.1.15,2013-03-18 20:10:00,
2013-03-18 16:15:00,40.0,39.0,30.00,ENE,67,0.0,5.0,96,0.00,,,0.01,Wunderground v.1.15,2013-03-18 20:15:00,
2013-03-18 16:25:00,39.9,38.9,29.99,NE,35,0.0,5.0,96,0.00,,,0.01,Wunderground v.1.15,2013-03-18 20:25:00,
2013-03-18 16:30:00,39.8,38.8,29.99,NE,35,0.0,5.0,96,0.00,,,0.01,Wunderground v.1.15,2013-03-18 20:30:00,
2013-03-18 16:35:00,39.9,38.9,29.98,NE,35,0.0,5.0,96,0.00,,,0.01,Wunderground v.1.15,2013-03-18 20:35:00,
2013-03-18 16:45:00,39.8,38.8,29.99,North,350,0.0,5.0,96,0.00,,,0.01,Wunderground v.1.15,2013-03-18 20:45:00,
2013-03-18 16:50:00,39.8,38.8,30.00,North,360,1.0,1.0,96,0.00,,,0.01,Wunderground v.1.15,2013-03-18 20:50:00,
2013-03-18 16:55:00,39.8,38.8,30.00,North,360,1.0,5.0,96,0.00,,,0.01,Wunderground v.1.15,2013-03-18 20:55:00,
2013-03-18 17:00:00,39.8,38.8,30.00,North,360,0.0,5.0,96,0.00,,,0.01,Wunderground v.1.15,2013-03-18 21:00:00,
2013-03-18 17:10:00,40.0,39.0,29.99,NE,42,0.0,5.0,96,0.00,,,0.01,Wunderground v.1.15,2013-03-18 21:10:00,
2013-03-18 17:15:00,40.0,39.0,29.98,ENE,74,0.0,5.0,96,0.00,,,0.01,Wunderground v.1.15,2013-03-18 21:15:00,
2013-03-18 17:20:00,40.0,39.0,29.99,East,83,1.0,1.0,96,0.00,,,0.01,Wunderground v.1.15,2013-03-18 21:20:00,
2013-03-18 17:25:00,40.1,39.1,29.99,NNE,30,0.0,5.0,96,0.00,,,0.01,Wunderground v.1.15,2013-03-18 21:25:00,
2013-03-18 17:35:00,40.0,39.0,29.99,NNE,30,0.0,5.0,96,0.00,,,0.02,Wunderground v.1.15,2013-03-18 21:35:00,
2013-03-18 17:40:00,40.0,39.0,29.97,ENE,61,0.0,5.0,96,0.00,,,0.02,Wunderground v.1.15,2013-03-18 21:40:00,
2013-03-18 17:45:00,40.0,39.0,29.99,ENE,61,0.0,5.0,96,0.00,,,0.02,Wunderground v.1.15,2013-03-18 21:45:00,
2013-03-18 17:55:00,40.1,39.1,29.97,ENE,65,0.0,5.0,96,0.00,,,0.02,Wunderground v.1.15,2013-03-18 21:55:00,
2013-03-18 18:00:00,40.0,39.0,29.98,ENE,67,0.0,5.0,96,0.00,,,0.02,Wunderground v.1.15,2013-03-18 22:00:00,
2013-03-18 18:10:00,39.9,38.9,30.00,ENE,67,0.0,5.0,96,0.00,,,0.03,Wunderground v.1.15,2013-03-18 22:10:00,
2013-03-18 18:15:00,39.9,38.9,30.00,WNW,301,0.0,5.0,96,0.00,,,0.03,Wunderground v.1.15,2013-03-18 22:15:00,
2013-03-18 18:20:00,39.9,38.9,30.00,WNW,301,0.0,5.0,96,0.00,,,0.03,Wunderground v.1.15,2013-03-18 22:20:00,
2013-03-18 18:30:00,39.8,38.8,29.97,NE,46,1.0,1.0,96,0.00,,,0.03,Wunderground v.1.15,2013-03-18 22:30:00,
2013-03-18 18:35:00,39.8,38.8,29.98,NE,46,0.0,5.0,96,0.00,,,0.04,Wunderground v.1.15,2013-03-18 22:35:00,
2013-03-18 18:40:00,39.8,38.8,29.96,NE,44,0.0,5.0,96,0.12,,,0.05,Wunderground v.1.15,2013-03-18 22:40:00,
2013-03-18 18:50:00,39.6,38.6,29.96,NW,311,1.0,5.0,96,0.05,,,0.05,Wunderground v.1.15,2013-03-18 22:50:00,
2013-03-18 18:55:00,39.6,38.6,29.97,North,355,1.0,5.0,96,0.04,,,0.05,Wunderground v.1.15,2013-03-18 22:55:00,
2013-03-18 19:00:00,39.6,38.6,29.97,NNE,23,1.0,1.0,96,0.00,,,0.05,Wunderground v.1.15,2013-03-18 23:00:00,
2013-03-18 19:10:00,39.6,38.6,29.99,NNW,333,0.0,5.0,96,0.00,,,0.05,Wunderground v.1.15,2013-03-18 23:10:00,
2013-03-18 19:15:00,39.6,38.6,29.99,NE,56,0.0,5.0,96,0.53,,,0.07,Wunderground v.1.15,2013-03-18 23:15:00,
2013-03-18 19:20:00,39.6,38.6,30.00,NNE,13,0.0,5.0,96,0.21,,,0.10,Wunderground v.1.15,2013-03-18 23:20:00,
2013-03-18 19:25:00,39.5,38.7,30.02,NNE,15,0.0,5.0,97,0.16,,,0.11,Wunderground v.1.15,2013-03-18 23:25:00,
2013-03-18 19:35:00,39.6,38.6,30.03,NW,325,0.0,5.0,96,0.04,,,0.11,Wunderground v.1.15,2013-03-18 23:35:00,
2013-03-18 19:40:00,39.6,38.6,30.02,NNE,22,0.0,5.0,96,0.15,,,0.13,Wunderground v.1.15,2013-03-18 23:40:00,
2013-03-18 19:45:00,39.5,38.7,30.02,NE,37,1.0,5.0,97,0.40,,,0.15,Wunderground v.1.15,2013-03-18 23:45:00,
2013-03-18 19:55:00,39.2,38.2,29.99,ENE,71,1.0,5.0,96,0.34,,,0.21,Wunderground v.1.15,2013-03-18 23:55:00,
2013-03-18 20:00:00,39.2,38.2,30.01,NW,313,1.0,1.0,96,0.39,,,0.23,Wunderground v.1.15,2013-03-19 00:00:00,
2013-03-18 20:05:00,39.0,38.0,30.00,North,355,1.0,5.0,96,0.17,,,0.24,Wunderground v.1.15,2013-03-19 00:05:00,
2013-03-18 20:15:00,38.7,37.7,30.01,North,5,0.0,5.0,96,0.09,,,0.26,Wunderground v.1.15,2013-03-19 00:15:00,
2013-03-18 20:20:00,38.6,37.6,30.01,East,97,1.0,1.0,96,0.13,,,0.27,Wunderground v.1.15,2013-03-19 00:20:00,
2013-03-18 20:25:00,38.6,37.6,30.01,NNE,15,1.0,5.0,96,0.12,,,0.28,Wunderground v.1.15,2013-03-19 00:25:00,
2013-03-18 20:30:00,38.4,37.4,30.00,NE,56,1.0,1.0,96,0.08,,,0.29,Wunderground v.1.15,2013-03-19 00:30:00,
2013-03-18 20:40:00,38.3,37.3,29.98,ESE,117,1.0,5.0,96,0.05,,,0.29,Wunderground v.1.15,2013-03-19 00:40:00,
2013-03-18 20:45:00,38.3,37.3,29.97,SSE,157,1.0,5.0,96,0.00,,,0.29,Wunderground v.1.15,2013-03-19 00:45:00,
2013-03-18 20:50:00,38.3,37.3,29.98,SW,229,0.0,5.0,96,0.00,,,0.29,Wunderground v.1.15,2013-03-19 00:50:00,
2013-03-18 21:00:00,38.2,37.2,29.97,East,100,0.0,5.0,96,0.00,,,0.29,Wunderground v.1.15,2013-03-19 01:00:00,
2013-03-18 21:05:00,38.2,37.2,29.97,East,100,0.0,5.0,96,0.00,,,0.29,Wunderground v.1.15,2013-03-19 01:05:00,
2013-03-18 21:10:00,38.3,37.3,29.96,East,100,0.0,5.0,96,0.00,,,0.29,Wunderground v.1.15,2013-03-19 01:10:00,
2013-03-18 21:20:00,38.3,37.3,29.94,ESE,103,0.0,5.0,96,0.00,,,0.30,Wunderground v.1.15,2013-03-19 01:20:00,
2013-03-18 21:25:00,38.3,37.3,29.94,ESE,103,0.0,5.0,96,0.00,,,0.30,Wunderground v.1.15,2013-03-19 01:25:00,
2013-03-18 21:30:00,38.3,37.3,29.93,ESE,103,0.0,5.0,96,0.00,,,0.30,Wunderground v.1.15,2013-03-19 01:30:00,
2013-03-18 21:40:00,38.4,37.4,29.92,SSE,154,0.0,5.0,96,0.00,,,0.30,Wunderground v.1.15,2013-03-19 01:40:00,
2013-03-18 21:45:00,38.4,37.4,29.92,North,5,0.0,5.0,96,0.00,,,0.30,Wunderground v.1.15,2013-03-19 01:45:00,
2013-03-18 21:50:00,38.4,37.4,29.92,North,11,0.0,5.0,96,0.00,,,0.30,Wunderground v.1.15,2013-03-19 01:50:00,
2013-03-18 22:00:00,38.5,37.7,29.90,South,169,1.0,5.0,97,0.00,,,0.30,Wunderground v.1.15,2013-03-19 02:00:00,
2013-03-18 22:05:00,38.6,37.6,29.90,SSE,163,1.0,5.0,96,0.00,,,0.30,Wunderground v.1.15,2013-03-19 02:05:00,
2013-03-18 22:10:00,38.6,37.6,29.89,SSE,163,0.0,5.0,96,0.00,,,0.30,Wunderground v.1.15,2013-03-19 02:10:00,
2013-03-18 22:15:00,38.6,37.6,29.89,SSE,163,0.0,5.0,96,0.00,,,0.30,Wunderground v.1.15,2013-03-19 02:15:00,
2013-03-18 22:25:00,38.7,37.9,29.88,SSE,163,0.0,5.0,97,0.00,,,0.30,Wunderground v.1.15,2013-03-19 02:25:00,
2013-03-18 22:30:00,38.7,37.9,29.88,SSE,163,0.0,5.0,97,0.00,,,0.31,Wunderground v.1.15,2013-03-19 02:30:00,
2013-03-18 22:35:00,38.8,38.0,29.88,SSE,163,0.0,5.0,97,0.00,,,0.31,Wunderground v.1.15,2013-03-19 02:35:00,
2013-03-18 22:45:00,38.9,38.1,29.86,SSE,163,1.0,5.0,97,0.00,,,0.31,Wunderground v.1.15,2013-03-19 02:45:00,
2013-03-18 22:50:00,39.0,38.2,29.86,SSE,163,0.0,5.0,97,0.00,,,0.31,Wunderground v.1.15,2013-03-19 02:50:00,
2013-03-18 22:55:00,39.1,38.3,29.85,SSE,165,0.0,5.0,97,0.00,,,0.31,Wunderground v.1.15,2013-03-19 02:55:00,
2013-03-18 23:00:00,39.1,38.3,29.84,SSE,161,1.0,5.0,97,0.00,,,0.31,Wunderground v.1.15,2013-03-19 03:00:00,
2013-03-18 23:10:00,39.3,38.5,29.84,SSE,161,1.0,5.0,97,0.00,,,0.31,Wunderground v.1.15,2013-03-19 03:10:00,
2013-03-18 23:15:00,39.5,38.7,29.89,WNW,302,1.0,5.0,97,0.00,,,0.31,Wunderground v.1.15,2013-03-19 03:15:00,
2013-03-18 23:20:00,39.7,38.9,29.91,North,360,1.0,1.0,97,0.00,,,0.31,Wunderground v.1.15,2013-03-19 03:20:00,
2013-03-18 23:30:00,39.8,39.0,29.91,NE,44,1.0,1.0,97,0.00,,,0.31,Wunderground v.1.15,2013-03-19 03:30:00,
2013-03-18 23:35:00,39.9,39.1,29.91,NNE,14,0.0,5.0,97,0.00,,,0.31,Wunderground v.1.15,2013-03-19 03:35:00,
2013-03-18 23:40:00,39.8,39.0,29.90,East,88,0.0,5.0,97,0.00,,,0.31,Wunderground v.1.15,2013-03-19 03:40:00,
2013-03-18 23:50:00,39.7,38.9,29.91,NNE,17,0.0,5.0,97,0.00,,,0.31,Wunderground v.1.15,2013-03-19 03:50:00,
2013-03-18 23:55:00,39.5,38.7,29.89,ENE,69,0.0,5.0,97,0.00,,,0.31,Wunderground v.1.15,2013-03-19 03:55:00,